Aeroporto :
LOGIN :

Iscrizione | Disclaimer

   EN    FR    IT 

 










Sommario :    VFR   VFR Marginale   IFR   IFR Intensivo   IFR Molto Intensivo
Visibilità : 
Base nubi : 
>= 8 km
>= 3000ft
5 / 8 km
1000 / 3000 ft
1500m / 5 km
500 / 1000 ft
800 / 1500m
200 / 500 ft
< 800m
< 200 ft
Simboli :   Temporali  Nebbia  Neve Forte  Precipitazioni Forti  Vento > 20 kt
SIGMETs :   Varie  Temporali  Ghiacco  Turbolenza  Onda orograficha  Ceneri Vulcaniche






- Altitudine del aeroporto : 7 ft
- Codice IATA : VCE


LIPZ - Marco Polo Int. Venezia

ULTIMO METAR :
  • 080150Z 04007KT CAVOK 17/13 Q1017 NOSIG

METARs OBSOLETI :
  • 080120Z 03008KT CAVOK 18/13 Q1017 NOSIG
  • 080050Z 03007KT CAVOK 19/13 Q1017 NOSIG
  • 080020Z 02007KT CAVOK 19/13 Q1017 NOSIG
  • 072350Z 36006KT CAVOK 20/12 Q1017 NOSIG

TAF TAF LIPZ
Valido dal 08 a 00 ore il 09 a 06 ore UTC


072300Z 0800/0906 02010KT CAVOK
BECMG 0808/0810 15010KT
BECMG 0818/0820 VRB05KT



MetMap, La meteo Aeronautica in un colpo d'occhio ! - Copyright ORBIFLY Dicembre 2007 - Disclaimer

ORBIFLY MET'MAP TEAM :

Programmazione e sviluppo : Alexandra Zaïnal
Concezione : Baudouin d'Aumeries
Aiuto per la programmazione : Marc-Olivier Méhu
Supporto tecnico e logistico : Manuel Goepfert
Aiuto per la traduzione : Arnaldo La Scala

Contatto : metmap@orbifly.com




FONTI E CREDITI :

   NOAA